www.pogodaiklimat.ru

Погода и климат >> Архив погоды >> Россия >> Саратовская область >> Хвалынск


ПОГОДА в Хвалынске

  • Прогноз погоды в Хвалынске
  • Монитор погоды в Хвалынске

АРХИВ ПОГОДЫ в Хвалынске

Время (UTC), дата Ветер
(напр.,м/с)
 
Видим.   Явления Облачность Т
(С)
Тd
(С)
f
(%)
Тe
(С)
Тes
(С)
Комфортность P
(гПа)
Po
(гПа)
Тmin
(С)
Tmax
(С)
R
(мм)
R24
(мм)
S
(см)
15 11.08 СЗ 4
{11}
20 км осадки на расстоянии 10/6 600 м
[Cb cap Ac As]
+17.5 +13.0 75 +17 +17 1001.8 994.1 +21.4
18 11.08 СЗ 5
{11}
50 км 9/4 600 м
[Sc Ac As]
+16.0 +13.4 85 +15 +15 1003.4 995.7
21 11.08 СЗ 5-10
{11}
50 км 6/3 600 м
[Sc Ac As]
+14.6 +11.7 83 +13 +13 1003.7 995.9
00 12.08 СЗ 5-12
{13}
50 км 10/0
[Ac und]
+13.5 +11.0 85 +12 +12 1004.2 996.4
03 12.08 С 4
{15}
20 км 10/10 720 м
[Sc]
+12.4 +9.9 85 +10 +10 1006.2 998.4 +12.4
06 12.08 С 7-12
{13}
20 км осадки на расстоянии 10/10 1000 м
[Cb cap]
+13.3 +9.4 77 +11 +11 1007.2 999.3 +12.1
09 12.08 СЗ 6-12
{15}
20 км 8/5 1000 м
[Sc Ci fib]
+16.9 +9.4 61 +16 +18 1007.4 999.6
12 12.08 СЗ 6-12
{15}
20 км 3/3 1000 м
[Sc]
+19.0 +6.3 43 +19 +21 1007.6 999.9
15 12.08 С 6-10
{13}
20 км 3/3 600 м
[Sc]
+17.7 +4.6 42 +17 +17 1008.5 1000.8 +19.1
18 12.08 С 6
{10}
50 км ясно +13.9 +4.8 54 +12 +12 1010.4 1002.6
21 12.08 СЗ 4
{10}
50 км ясно +11.4 +5.1 65 +9 +9 1010.8 1002.9
00 13.08 СЗ 4 50 км ясно +9.7 +5.2 74 +7 +7 1011.2 1003.3
03 13.08 СЗ 4 20 км ясно +10.2 +5.3 72 +8 +8 1011.9 1004.0 +8.5
06 13.08 С 6-11
{14}
20 км ясно +13.9 +6.1 59 +12 +15 1012.0 1004.1
09 13.08 СЗ 6-11
{12}
20 км ясно +18.1 +4.4 40 +18 +23 1010.8 1003.0
12 13.08 С 7-13
{13}
20 км ясно +20.7 +1.7 28 +21 +23 комфорт 1010.7 1003.0
15 13.08 С 4
{13}
20 км ясно +19.3 +2.1 32 +20 +20 1011.0 1003.3 +21.1
18 13.08 СЗ 3 50 км ясно +15.4 +3.3 44 +15 +15 1012.3 1004.4
21 13.08 СЗ 3 50 км 3/0
[Ci fib]
+13.5 +3.7 51 +13 +13 1012.3 1004.4
00 14.08 З 4 50 км 4/0
[Ci fib]
+12.6 +4.1 56 +11 +11 1012.4 1004.5
03 14.08 З 3 20 км 8/0
[Ci fib]
+14.3 +5.0 54 +14 +14 1013.2 1005.3 +11.9
06 14.08 СЗ 3 20 км 10/0
[Ci fib]
+19.5 +5.3 39 +20 +26 1012.9 1005.1
09 14.08 ЮВ 2 20 км 10/0
[Ac As Ci fib]
+22.4 +9.3 43 +24 +31 комфорт 1011.3 1003.7
12 14.08 Ю 3 20 км 10/0
[Ac trans Ci fib]
+23.9 +9.4 40 +25 +29 комфорт 1010.2 1002.7
15 14.08 Ю 1 20 км 10/0
[Ac trans Ci fib]
+21.9 +10.6 49 +24 +24 комфорт 1010.6 1003.0 +24.2
18 14.08 СЗ 1 50 км 3/0
[Ac trans]
+18.9 +14.9 78 +21 +21 комфорт 1011.3 1003.6
21 14.08 СЗ 2 50 км 10/0
[Ac und]
+19.1 +11.5 61 +21 +21 комфорт 1011.9 1004.2
00 15.08 СЗ 2 50 км ясно +17.3 +10.8 66 +18 +18 1012.3 1004.5
03 15.08 штиль 0 20 км 8/0
[Ac As]
+17.2 +12.2 72 +17 +18 1013.5 1005.8 +16.5
06 15.08 СВ 1 20 км ясно +19.8 +12.6 63 +23 +33 комфорт 1014.0 1006.3
09 15.08 В 2 20 км ясно +24.7 +13.6 50 +27 +40 жарко 1013.6 1006.0
12 15.08 ЮВ 2 20 км ясно +27.9 +13.8 42 +30 +37 жарко 1012.8 1005.3
15 15.08 ЮВ 1 20 км ясно +25.6 +16.7 58 +29 +30 душно 1012.4 1004.9 +28.0
18 15.08 З 1 50 км ясно +23.6 +14.9 58 +26 +26 жарко 1013.0 1005.4
21 15.08 ЮЗ 1 50 км ясно +21.7 +14.4 63 +25 +25 комфорт 1013.3 1005.8
00 16.08 штиль 0 50 км ясно +19.3 +13.8 70 +21 +21 комфорт 1013.3 1005.6
03 16.08 С 1 20 км 6/0
[Ci]
+18.8 +15.3 80 +21 +22 комфорт 1013.4 1005.7 +18.1
06 16.08 В 1 20 км 10/0
[Cc]
+22.4 +14.9 63 +26 +34 жарко 1013.1 1005.5
09 16.08 В 1 20 км 10/0
[Ci sp]
+28.0 +16.3 49 +31 +44 душно 1011.8 1004.3
12 16.08 С 2 20 км 10/3 1000 м
[Sc Ci sp]
+28.0 +15.3 46 +31 +35 душно 1010.2 1002.7
15 16.08 СЗ 2 20 км 10/0
[Ac cuf Ci sp]
+27.0 +14.2 45 +29 +30 жарко 1009.5 1002.0 +28.5
18 16.08 штиль 0 50 км 10/0
[Ci sp]
+25.6 +13.1 46 +28 +28 жарко 1010.0 1002.5
21 16.08 СЗ 1 50 км 10/0
[Ac und]
+24.5 +13.0 49 +27 +27 жарко 1010.2 1002.6
00 17.08 штиль 0 50 км 10/0
[Ac und]
+21.8 +13.6 60 +25 +25 комфорт 1010.9 1003.3
03 17.08 штиль 0 20 км 10/0
[Ac lent Ci fib]
+20.7 +15.1 70 +23 +24 комфорт 1011.3 1003.7 +19.6
06 17.08 СВ 1 20 км 10/0
[Ac cuf Ci fib]
+23.1 +15.8 63 +27 +32 душно 1011.8 1004.2
09 17.08 В 1 20 км 10/0
[Ci sp]
+25.7 +15.0 52 +29 +41 душно 1011.4 1003.9
12 17.08 В 1 20 км 10/0
[Cs]
+27.7 +13.3 41 +29 +36 жарко 1011.3 1003.8
15 17.08 С 2 20 км 10/0
[Ac As Ci fib]
+24.7 +13.6 50 +27 +27 жарко 1010.7 1003.1 +29.5
18 17.08 СЗ 3 50 км 6/0
[Ac As]
+24.4 +10.8 42 +26 +26 жарко 1010.7 1003.1
21 17.08 СЗ 1 50 км 10/0
[Ac und]
+22.6 +12.7 54 +25 +25 комфорт 1010.1 1002.4
00 18.08 СЗ 2 50 км 10/0
[Ac und]
+20.9 +13.8 64 +24 +24 комфорт 1010.9 1003.2
03 18.08 штиль 0 20 км 10/0
[Ac As Ci fib]
+20.9 +12.7 59 +23 +24 комфорт 1011.1 1003.5 +20.6
06 18.08 ЮВ 2 20 км 9/0
[Ac As]
+23.1 +11.4 48 +25 +28 комфорт 1012.1 1004.5
09 18.08 Ю 4 20 км {ливн. осадки} 10/0
[Ac und]
+25.4 +12.3 44 +27 +30 жарко 1013.0 1005.4
12 18.08 Ю 2 20 км {ливн. осадки} 10/0
[Ac und]
+26.0 +13.8 47 +28 +30 жарко 1013.5 1005.9

 

Местоположение метеостанции Хвалынск (Саратовская область, Россия): широта 52.50 долгота 48.08 высота над уровнем моря 88 м.

В архиве по умолчанию представлена погода в Хвалынске за последнюю неделю. Архивные данные за месяц целиком и за предыдущие месяцы, начиная с января 2011 года, Вы можете получить, выбрав интересующий диапазон дат из раскрывающегося списка и нажав кнопку "Ввод!".


*Определитесь, кто Вы:
робот инопланетянин человек

Внимание! Время в таблицах - всемирное. Для получения местного времени необходимо прибавить поправку, которая равна 4 ч.

Смотрите также архив погоды в соседних городах и на ближайших метеорологических станциях:

Погода в Приволжье (Самарская область, Россия) (55 км)
Погода в Балаково (Саратовская область, Россия) (56 км)
Погода в Пугачеве (Саратовская область, Россия) (73 км)
Погода в Сызрани (Самарская область, Россия) (79 км)
Погода в Канадее (Ульяновская область, Россия) (82 км)
Погода в Безенчуке (Самарская область, Россия) (105 км)
Погода в Карабулаке (Саратовская область, Россия) (118 км)
Погода в Чапаевске (Самарская область, Россия) (124 км)
Погода в Ершове (Саратовская область, Россия) (127 км)
Погода в Радищево (Пензенская область, Россия) (127 км)

Пояснения к столбцам:

Ветер - указаны скорость ветра в м/с - средняя за 10 мин, порывы в срок и между сроками (в фигурных скобках) и направление, откуда дует ветер: С - северный, СВ - северо-восточный, В - восточный, ЮВ - юго-восточный, Ю - южный, ЮЗ - юго-западный, З - западный, СЗ - северо-западный.
Видимость - горизонтальная дальность видимости в метрах или километрах. При видимости от 1 до 10 км при отсутствии осадков обычно наблюдается дымка, при ухудшении видимости до 1 км и менее - туман. В сухую погоду видимость может ухудшаться дымом, пылью или мглою.
Явления - указаны атмосферные явления, наблюдавшиеся в срок или в последний час перед сроком; фигурными скобками обозначены явления, наблюдавшиеся между сроками (за 1-3 часа до срока); квадратными скобками обозначены град или гололедные отложения с указанием их диаметра в мм.
Облачность - указаны через наклонную черту общая и нижняя облачность в баллах и высота нижней границы облаков в метрах; квадратными скобками обозначены формы облаков: Ci - перистые, Cs - перисто-слоистые, Cc - перисто-кучевые, Ac - высококучевые, As - высокослоистые, Sc - слоисто-кучевые, Ns - слоисто-дождевые, Cu - кучевые, Cb - кучево-дождевые. Подробнее классификацию облаков см. в Атласе облаков (PDF).
T - Температура воздуха - температура, измеренная на высоте 2 м над землей.
Td - Температура точки росы - температура, при понижении до которой содержащийся в воздухе водяной пар достигнет насыщения.
f - Относительная влажность воздуха - влажноcть воздуха, измеренная на высоте 2 м над землей.
Te - Эффективная температура - температура, которую ощущает одетый по сезону человек в тени. Характеристика душности погоды. При расчете учитывается влияние влажности воздуха и скорости ветра на теплоощущения человека.
Tes - Эффективная температура на солнце - температура, которую ощущает человек, с поправкой на солнечный нагрев. Характеристика знойности погоды. Зависит от высоты солнца над горизонтом, облачности и скорости ветра. Ночью, в пасмурную погоду, а также при ветре 12 м/с и более поправка равна нулю.
P - Атмосферное давление - приведенное к уровню моря атмосферное давление.
Po - Атмосферное давление - измеренное на уровне метеостанции атмосферное давление.
Tmin - Минимальная температура - минимум температуры воздуха на высоте 2 м над землей.
Tmax - Максимальная температура - максимум температуры воздуха на высоте 2 м над землей.
R - Количество осадков - Количество выпавших осадков за период времени, мм. При наведении курсора мыши на число - период времени, за который выпало указанное количество осадков.
R24 - Количество осадков - Количество выпавших осадков за 24 часа, мм.
S - Снежный покров - Высота снежного покрова, см. При наведении курсора мыши на число - состояние снежного покрова и степень покрытия местности в баллах.